You feel it's gonna be a long time until the cycling season starts again? Why don't you head over to Skisport365 and play our Winter Fantasy game in the mean time?

Nicolas Sessler

Info Calendar Victories 2018 2017 2016 2015 Team matesComments

Teams INFO: we are currently re-structuring the UCI-rank

Season Div. Team FC-rank UCI-rank Race days * Wins * Km *
2019 PROF Burgos - BH - - - - -
2018 PROF Burgos - BH 3690(1p) - 44 - 6417.9
2017 Lizarte 2020(17p) - 6 - 1148.9
2017 PROF Israel Cycling Academy (Trainee) 2020(17p) - 6 - 1148.9
2016 Sao Francisco - Saude-Powerade-SMR 1441(36p) - 17 - 2214.2
2016 VL Technics - Experza - Abutriek 1441(36p) - 17 - 2214.2
2015 Dovy Keukens FCC - - - - -
* from UCI races

2018 Results

# What Date Pos GC What Race FC-rank
points
2018-10-14 2.WT3 Stage race 09.10-14.10 84 Tour of Turkey -
2018-10-14 2.WT3 Mountains 09.10-14.10 16 Tour of Turkey -
2018-09-30 WCRR Innsbruck 30.09 DNF 258.0 km World Championship -
2018-09-20 KP One-day race 20.09 103 GP Eugeen Rogeman -
2018-09-18 KP One-day race 18.09 DNF 175.0 km Textielprijs Vichte -
2018-09-17 KP One-day race 17.09 63 GP Paul Borremans -
2018-08-04 2.HC Stage race 22.07-04.08 DNF Tour of Qinghai Lake -
2018-07-31 1.1 One-day race 31.07 DNF 185.0 km Circuito de Getxo -
2018-07-15 2.2 Stage race 12.07-15.07 65 GP Torres Vedras -
2018-07-15 2.2 Youth 12.07-15.07 31 GP Torres Vedras -
2018-07-15 2.2 Points 12.07-15.07 22 GP Torres Vedras -
2018-07-15 2.2 Mountains 12.07-15.07 18 GP Torres Vedras -
2018-07-15 2.2 Sprint 12.07-15.07 8 GP Torres Vedras -
2018-06-03 2.1 Stage race 31.05-03.06 57 Boucles de la Mayenne -
2018-05-27 2.HC Stage race 23.05-27.05 97 Belgium Tour -
2018-05-20 1.1 One-day race 20.05 98 174.6 km Grote Prijs Marcel Kint -
2018-04-29 2.1 Stage race 27.04-29.04 69 Vuelta a Asturias -
2018-04-15 2.1 Stage race 13.04-15.04 43 GP Beiras -
2018-04-15 2.1 Mountains 13.04-15.04 4 GP Beiras -
2018-04-15 2.1 Sprint 13.04-15.04 10 GP Beiras -
2018-04-08 1.1 One-day race 08.04 DNF 171.6 km Klasika Primavera -
2018-03-31 1.1 One-day race 31.03 62 186.0 km GP Miguel Indurain -
2018-03-18 2.2 Stage race 14.03-18.03 72 Volta ao Alentejo -
2018-02-11 2.1 Stage race 06.02-11.02 55 Colombia Oro y Paz -
2018-02-11 2.1 Youth 06.02-11.02 21 Colombia Oro y Paz -
2018-01-28 1.1 One-day race 28.01 30 159.6 km Trofeo Palma 1
2018-01-27 1.1 One-day race 27.01 54 165.8 km Trofeo Andratx -
2018-10-14 2.WT3 06.stage 14.10 71 84 166 km Tour of Turkey -
2018-10-13 2.WT3 05.stage 13.10 57 83 136.5 km Tour of Turkey -
2018-10-12 2.WT3 04.stage 12.10 79 83 205.3 km Tour of Turkey -
2018-10-11 2.WT3 03.stage 11.10 96 95 137 km Tour of Turkey -
2018-10-10 2.WT3 02.stage 10.10 116 107 154.1 km Tour of Turkey -
2018-10-09 2.WT3 01.stage 09.10 112 112 149.7 km Tour of Turkey -
2018-07-25 2.HC 04.stage 25.07 OOT 100 km Tour of Qinghai Lake -
2018-07-24 2.HC 03.stage 24.07 80 77 133 km Tour of Qinghai Lake -
2018-07-23 2.HC 02.stage 23.07 108 12 115 km Tour of Qinghai Lake -
2018-07-22 2.HC 01.stage 22.07 70 7 162 km Tour of Qinghai Lake -
2018-07-15 2.2 03.stage 15.07 35 65 172 km GP Torres Vedras -
2018-07-14 2.2 02.stage 14.07 76 85 144 km GP Torres Vedras -
2018-07-13 2.2 01.stage 13.07 83 93 162 km GP Torres Vedras -
2018-07-12 2.2 Prologue 12.07 92 92 8 km GP Torres Vedras -
2018-06-03 2.1 03.stage 03.06 51 57 182 km Boucles de la Mayenne -
2018-06-02 2.1 02.stage 02.06 56 68 172 km Boucles de la Mayenne -
2018-06-01 2.1 01.stage 01.06 82 83 176 km Boucles de la Mayenne -
2018-05-31 2.1 Prologue 31.05 108 108 4.5 km Boucles de la Mayenne -
2018-05-27 2.HC 05.stage 27.05 74 97 168.4 km Belgium Tour -
2018-05-26 2.HC 04.stage 26.05 61 104 147.3 km Belgium Tour -
2018-05-25 2.HC 03.stage 25.05 127 102 10.6 km Belgium Tour -
2018-05-24 2.HC 02.stage 24.05 86 81 150.4 km Belgium Tour -
2018-05-23 2.HC 01.stage 23.05 82 83 178.8 km Belgium Tour -
2018-04-29 2.1 03.stage 29.04 90 69 118 km Vuelta a Asturias -
2018-04-28 2.1 02.stage 28.04 45 58 166 km Vuelta a Asturias -
2018-04-27 2.1 01.stage 27.04 90 90 176 km Vuelta a Asturias -
2018-04-15 2.1 03.stage 15.04 55 43 168.3 km GP Beiras -
2018-04-14 2.1 02.stage 14.04 61 44 193.9 km GP Beiras -
2018-04-13 2.1 01.stage 13.04 39 39 177.2 km GP Beiras -
2018-03-18 2.2 06.stage 18.03 67 72 151.3 km Volta ao Alentejo -
2018-03-17 2.2 05.stage 17.03 68 76 8.4 km Volta ao Alentejo -
2018-03-17 2.2 04.stage 17.03 51 76 64.2 km Volta ao Alentejo -
2018-03-16 2.2 03.stage 16.03 73 83 149.3 km Volta ao Alentejo -
2018-03-15 2.2 02.stage 15.03 59 88 205.2 km Volta ao Alentejo -
2018-03-14 2.2 01.stage 14.03 94 94 173.5 km Volta ao Alentejo -
2018-02-11 2.1 06.stage 11.02 64 55 187 km Colombia Oro y Paz -
2018-02-10 2.1 05.stage 10.02 46 47 163 km Colombia Oro y Paz -
2018-02-09 2.1 04.stage 09.02 58 56 149.5 km Colombia Oro y Paz -
2018-02-08 2.1 03.stage 08.02 72 94 163.2 km Colombia Oro y Paz -
2018-02-07 2.1 02.stage 07.02 116 103 183.4 km Colombia Oro y Paz -
2018-02-06 2.1 01.stage 06.02 95 94 99.9 km Colombia Oro y Paz -

Info

Name Nicolas Sessler

Nation Brazil

Born24 year, Apr 29th 1994

Victories

Volta a Lleida (2017)
Volta a Valencia (2016)

Youth jerseys

Kreiz Breizh Elites (2016)
Volta a Valencia (2016)

Mountain jerseys

Vuelta Al Bidasoa (2016)